This is the latest recevied weather packets stored in our database for station/object KSUZ. If no packets are shown the sender has not sent any weather packets the latest 10 day(s).
| Time | Temp. | Humidity | Pressure | Rain* | Wind** | Luminosity | Snow |
|---|---|---|---|---|---|---|---|
| 1777530221 | 15° C | 82% | 1016.3 hPa | - | - | - | - |
| 1777529622 | 15° C | 82% | 1015.9 hPa | - | - | - | - |
| 1777529020 | 15° C | 82% | 1015.9 hPa | - | - | - | - |
| 1777528418 | 15.56° C | 77% | 1015.9 hPa | - | - | - | - |
| 1777527822 | 15.56° C | 77% | 1015.9 hPa | - | - | - | - |
| 1777527219 | 15.56° C | 82% | 1015.9 hPa | - | - | - | - |
| 1777526627 | 15.56° C | 82% | 1015.9 hPa | - | - | - | - |
| 1777526020 | 15.56° C | 87% | 1015.9 hPa | - | - | - | - |
| 1777525439 | 15.56° C | 87% | 1015.9 hPa | - | - | - | - |
| 1777524817 | 16.67° C | 88% | 1015.6 hPa | - | - | - | - |
| 1777524221 | 16.67° C | 88% | 1015.6 hPa | - | - | - | - |
| 1777523618 | 16.67° C | 88% | 1015.6 hPa | - | - | - | - |
| 1777523020 | 16.67° C | 88% | 1015.6 hPa | - | - | - | - |
| 1777522420 | 16.67° C | 93% | 1015.6 hPa | - | - | - | - |
| 1777521941 | 16.67° C | 93% | 1015.6 hPa | - | - | - | - |
| 1777521220 | 16.67° C | 93% | 1014.9 hPa | - | - | - | - |
| 1777520621 | 16.67° C | 93% | 1014.9 hPa | - | - | - | - |
| 1777520020 | 16.67° C | 100% | 1014.6 hPa | - | - | - | - |
| 1777519427 | 16.67° C | 100% | 1014.6 hPa | - | - | - | - |
| 1777518820 | 16.67° C | 93% | 1014.9 hPa | - | - | - | - |
| 1777518224 | 16.67° C | 93% | 1014.9 hPa | - | - | - | - |
| 1777517623 | 16.67° C | 93% | 1014.2 hPa | - | - | - | - |
| 1777517021 | 16.67° C | 93% | 1014.2 hPa | - | - | - | - |
| 1777516423 | 16.67° C | 93% | 1014.6 hPa | - | - | - | - |
| 1777515822 | 16.67° C | 93% | 1014.6 hPa | - | - | - | - |
* Rain since midnight (hover to see other rain measurements)
** Current wind speed in m/s (hover to see current wind gust speed)